Philadelphia, PA

2:20 PM EDT on August 20, 2017 (GMT -0400)
Philadelphia International

Weather History for KPHL - January, 2013

Change the Weather History Date:

Wednesday, January 30, 2013

  Actual Average Record
Temperature  
Mean Temperature 53 °F 33 °F  
Max Temperature 68 °F 41 °F 70 °F (1947)
Min Temperature 38 °F 26 °F 8 °F (1948)
Degree Days  
Heating Degree Days 12 32  
Month to date heating degree days 862 958  
Since 1 July heating degree days 2358 2628  
Cooling Degree Days 0 0  
Month to date cooling degree days 0 0  
Year to date cooling degree days 0 0  
Growing Degree Days 2 (Base 50)    
Moisture  
Dew Point 51 °F    
Average Humidity 84    
Maximum Humidity 100    
Minimum Humidity 68    
Precipitation  
Precipitation 0.32 in 0.10 in 1.79 in (1939)
Month to date precipitation 2.72 2.93  
Year to date precipitation 2.72 2.93  
Snow  
Snow 0.00 in 0.30 in 5.60 in (1966)
Month to date snowfall 3.8 6.2  
Since 1 July snowfall 4.2 9.9  
Snow Depth 0.00 in    
Sea Level Pressure  
Sea Level Pressure 29.72 in    
Wind  
Wind Speed 10 mph (SSW)    
Max Wind Speed 27 mph    
Max Gust Speed 37 mph    
Visibility 6 miles    
Events Fog , Rain    
T = Trace of Precipitation, MM = Missing Value Source: NWS Daily Summary

Daily Weather History Graph

Daily Weather History Graph

Search for Another Location

Airport or City:

Trip Planner

Search our weather history database for the weather conditions in past years. The results will help you decide how hot, cold, wet, or windy it might be!

Date:

Astronomy

Jan. 30, 2013 Rise Set
Actual Time 7:10 AM EST 5:18 PM EST
Civil Twilight 6:42 AM EST 5:46 PM EST
Nautical Twilight 6:09 AM EST 6:19 PM EST
Astronomical Twilight 5:37 AM EST 6:51 PM EST
Moon 9:13 PM EST (1/30) 8:37 AM EST (1/30)
Length of Visible Light 11h 04m
Length of Day
10h 07m
Waning Gibbous, 88% of the Moon is Illuminated
Jan 30
Waning Gibbous
Feb 3
Last Quarter
Feb 10
New
Feb 17
First Quarter
Feb 25
Full

Hourly Weather History & Observations

Time (EST) Temp. Windchill Dew Point Humidity Pressure Visibility Wind Dir Wind Speed Gust Speed Precip Events Conditions
12:10 AM 39.2 °F 37.0 °F 39.2 °F 100% 30.05 in 4.0 mi East 3.5 mph - N/A   Scattered Clouds
12:54 AM 39.9 °F - 39.0 °F 97% 30.02 in 4.0 mi Calm Calm - N/A   Scattered Clouds
1:54 AM 39.0 °F - 37.9 °F 96% 30.01 in 4.0 mi Calm Calm - N/A   Scattered Clouds
2:54 AM 39.0 °F 36.8 °F 37.9 °F 96% 29.97 in 3.0 mi ENE 3.5 mph - N/A Fog Mostly Cloudy
3:47 AM 37.4 °F - 37.4 °F 100% 29.94 in 2.5 mi Calm Calm - N/A Fog Overcast
3:54 AM 37.9 °F - 37.0 °F 97% 29.94 in 2.5 mi Calm Calm - N/A Fog Overcast
4:54 AM 41.0 °F 39.0 °F 41.0 °F 100% 29.92 in 2.5 mi NNE 3.5 mph - N/A Fog Overcast
5:44 AM 41.0 °F 39.0 °F 39.2 °F 93% 29.90 in 3.0 mi ENE 3.5 mph - N/A   Scattered Clouds
5:54 AM 39.9 °F 37.8 °F 39.0 °F 97% 29.90 in 3.0 mi East 3.5 mph - N/A Fog Scattered Clouds
6:54 AM 42.1 °F - 41.0 °F 96% 29.88 in 4.0 mi Calm Calm - N/A Fog Mostly Cloudy
7:35 AM 42.8 °F - 42.8 °F 100% 29.87 in 5.0 mi Calm Calm - N/A   Mostly Cloudy
7:54 AM 45.0 °F - 44.1 °F 97% 29.86 in 6.0 mi Calm Calm - N/A   Overcast
8:32 AM 53.6 °F - 50.0 °F 88% 29.85 in 7.0 mi SSW 5.8 mph - N/A   Overcast
8:54 AM 54.0 °F - 52.0 °F 93% 29.84 in 7.0 mi SSW 5.8 mph - N/A   Overcast
9:23 AM 57.2 °F - 53.6 °F 88% 29.83 in 7.0 mi SSW 12.7 mph - N/A   Overcast
9:36 AM 57.2 °F - 53.6 °F 88% 29.83 in 7.0 mi South 13.8 mph - N/A   Overcast
9:54 AM 57.9 °F - 53.1 °F 84% 29.81 in 8.0 mi South 10.4 mph - N/A   Overcast
10:38 AM 60.8 °F - 55.4 °F 82% 29.80 in 10.0 mi South 15.0 mph 25.3 mph N/A   Overcast
10:54 AM 61.0 °F - 55.0 °F 81% 29.79 in 10.0 mi South 18.4 mph 25.3 mph N/A   Overcast
11:46 AM 62.6 °F - 57.2 °F 82% 29.73 in 10.0 mi South 17.3 mph 27.6 mph 0.01 in   Overcast
11:51 AM 64.4 °F - 57.2 °F 77% 29.73 in 10.0 mi South 20.7 mph 28.8 mph N/A   Overcast
11:54 AM 64.0 °F - 57.0 °F 78% 29.73 in 10.0 mi South 21.9 mph 28.8 mph N/A   Overcast
12:54 PM 66.9 °F - 57.0 °F 70% 29.69 in 10.0 mi SSW 26.5 mph 36.8 mph N/A   Overcast
1:54 PM 66.0 °F - 57.0 °F 73% 29.66 in 10.0 mi South 20.7 mph 26.5 mph N/A   Overcast
2:54 PM 66.9 °F - 57.0 °F 70% 29.64 in 10.0 mi SSW 24.2 mph 33.4 mph N/A   Overcast
3:54 PM 66.9 °F - 55.9 °F 68% 29.61 in 10.0 mi South 19.6 mph 29.9 mph N/A   Overcast
4:54 PM 66.9 °F - 55.9 °F 68% 29.59 in 10.0 mi South 23.0 mph 31.1 mph N/A   Overcast
5:20 PM 66.2 °F - 55.4 °F 68% 29.61 in 5.0 mi SW 16.1 mph - 0.00 in Rain Light Rain
5:26 PM 62.6 °F - 57.2 °F 82% 29.62 in 5.0 mi West 20.7 mph 34.5 mph 0.02 in Rain Rain
5:31 PM 60.8 °F - 57.2 °F 88% 29.62 in 4.0 mi WSW 17.3 mph 32.2 mph 0.02 in Rain Light Rain
5:38 PM 60.8 °F - 57.2 °F 88% 29.62 in 5.0 mi SW 17.3 mph - 0.02 in Rain Light Rain
5:54 PM 60.1 °F - 57.0 °F 90% 29.63 in 6.0 mi WSW 13.8 mph - 0.03 in Rain Light Rain
6:19 PM 59.0 °F - 57.2 °F 94% 29.62 in 6.0 mi WSW 10.4 mph - 0.01 in Rain Light Rain
6:31 PM 57.2 °F - 55.4 °F 94% 29.60 in 8.0 mi SSW 6.9 mph - 0.02 in Rain Light Rain
6:54 PM 57.9 °F - 55.9 °F 93% 29.59 in 8.0 mi SSE 4.6 mph - 0.03 in Rain Light Rain
7:54 PM 57.0 °F - 55.9 °F 96% 29.55 in 8.0 mi SE 3.5 mph - 0.00 in   Overcast
8:20 PM 55.4 °F - 53.6 °F 94% 29.52 in 8.0 mi Calm Calm - N/A   Mostly Cloudy
8:43 PM 60.8 °F - 55.4 °F 82% 29.49 in 10.0 mi South 12.7 mph - N/A   Mostly Cloudy
8:54 PM 61.0 °F - 55.9 °F 83% 29.49 in 10.0 mi South 16.1 mph 25.3 mph 0.01 in   Overcast
9:54 PM 61.0 °F - 55.9 °F 83% 29.44 in 10.0 mi South 21.9 mph 27.6 mph N/A Rain Light Rain
10:29 PM 60.8 °F - 55.4 °F 82% 29.45 in 5.0 mi SW 18.4 mph 29.9 mph 0.01 in Rain Light Rain
10:37 PM 60.8 °F - 57.2 °F 88% 29.44 in 5.0 mi SW 18.4 mph 25.3 mph 0.02 in Rain Rain
10:45 PM 60.8 °F - 57.2 °F 88% 29.43 in 3.0 mi SSW 15.0 mph 25.3 mph 0.04 in Rain Light Rain
10:54 PM 59.0 °F - 55.9 °F 90% 29.42 in 4.0 mi SW 9.2 mph - 0.05 in Rain Light Rain
11:54 PM 57.9 °F - 55.9 °F 93% 29.35 in 3.0 mi South 8.1 mph - 0.21 in Rain Rain